TimeEST,TemperatureF,Dew PointF,Humidity,Sea Level PressureIn,VisibilityMPH,Wind Direction,Wind SpeedMPH,Gust SpeedMPH,PrecipitationIn,Events,Conditions,WindDirDegrees,DateUTC
12:56 AM,42.1,39.0,89,30.15,9.0,Calm,Calm,-,N/A,,Partly Cloudy,0,2012-02-08 05:56:00
1:56 AM,39.0,37.0,93,30.16,10.0,NNW,5.8,-,N/A,,Scattered Clouds,330,2012-02-08 06:56:00
2:56 AM,41.0,37.9,89,30.14,8.0,Calm,Calm,-,N/A,,Scattered Clouds,0,2012-02-08 07:56:00
3:56 AM,36.0,35.1,97,30.14,7.0,North,4.6,-,N/A,,Scattered Clouds,350,2012-02-08 08:56:00
4:56 AM,37.9,37.0,97,30.12,7.0,North,3.5,-,N/A,Fog,Shallow Fog,350,2012-02-08 09:56:00
5:56 AM,37.9,36.0,93,30.13,7.0,Calm,Calm,-,N/A,Fog,Shallow Fog,0,2012-02-08 10:56:00
6:56 AM,37.0,35.1,93,30.14,6.0,NNW,4.6,-,N/A,Fog,Shallow Fog,340,2012-02-08 11:56:00
7:56 AM,39.9,37.9,93,30.16,10.0,NNW,5.8,-,N/A,,Scattered Clouds,330,2012-02-08 12:56:00
8:56 AM,48.0,39.9,74,30.16,10.0,North,4.6,-,N/A,,Mostly Cloudy,360,2012-02-08 13:56:00
9:56 AM,54.0,37.9,55,30.17,10.0,NE,3.5,-,N/A,,Mostly Cloudy,40,2012-02-08 14:56:00
10:56 AM,57.0,35.1,44,30.17,10.0,NNW,5.8,-,N/A,,Mostly Cloudy,330,2012-02-08 15:56:00
11:56 AM,63.0,34.0,34,30.14,10.0,Variable,6.9,-,N/A,,Mostly Cloudy,0,2012-02-08 16:56:00
12:56 PM,62.1,32.0,32,30.12,10.0,NW,5.8,-,N/A,,Mostly Cloudy,320,2012-02-08 17:56:00
1:56 PM,64.0,33.1,31,30.08,10.0,WNW,8.1,-,N/A,,Mostly Cloudy,290,2012-02-08 18:56:00
2:56 PM,64.9,32.0,29,30.07,10.0,North,6.9,-,N/A,,Mostly Cloudy,360,2012-02-08 19:56:00
3:56 PM,66.0,32.0,28,30.06,10.0,NW,9.2,-,N/A,,Scattered Clouds,320,2012-02-08 20:56:00
4:56 PM,64.0,33.1,31,30.06,10.0,NW,6.9,-,N/A,,Scattered Clouds,320,2012-02-08 21:56:00
5:56 PM,57.0,35.1,44,30.07,4.0,NNE,8.1,-,N/A,,Smoke,30,2012-02-08 22:56:00
6:56 PM,53.1,35.1,50,30.10,10.0,NNE,6.9,-,N/A,,Scattered Clouds,20,2012-02-08 23:56:00
7:56 PM,51.1,35.1,54,30.11,10.0,Calm,Calm,-,N/A,,Partly Cloudy,0,2012-02-09 00:56:00
8:56 PM,46.9,35.1,63,30.13,6.0,North,5.8,-,N/A,,Smoke,10,2012-02-09 01:56:00
9:56 PM,46.9,35.1,63,30.14,6.0,NNE,3.5,-,N/A,,Smoke,20,2012-02-09 02:56:00
10:56 PM,43.0,35.1,74,30.15,6.0,North,4.6,-,N/A,,Smoke,360,2012-02-09 03:56:00
11:56 PM,46.0,36.0,68,30.16,6.0,NNE,9.2,-,N/A,,Smoke,30,2012-02-09 04:56:00